Probability
0 0 0 0 0 0 0 0 0 0 0 0 0 0 0 0 0 0 0 0 0 0 0 0 0 0 0 0 0 0 0 0 0 0 0 0 0 0 0 0 0 0 0
0 0 0 0 0 0 0 0 0 0 0 0 0 0 0 0 0 0 0 0 0 0 0 0 0 0 0 0 0 0 0 0 0 0 0 0 0 0 0 0 0 0 0
0 0 0 0 0 0 0 0 0 0 0 0 0 0 0 0 0 0 0 0 0 0 0 0 0 0 0 0 0 0 0 0 0 0 0 0 0 0 0 0 0 0 0
0 0 0 0 0 0 0 0 0 0 0 0 0 0 0 0 0 0 0 0 0 0 0 0 0 0 0 0 0 0 0 0 0 0 0 0 0 0 0 0 0 0 0
0 0 0 0 0 0 0 0 0 0 0 0 0 0 0 0 0 0 0 0 0 0 0 0 0 0 0 0 0 0 0 0 0 0 0 0 0 0 0 0 0 0 0
0 0 0 0 0 0 0 0 0 0 0 0 0 0 0 0 0 0 0 0 0 0 0 0 0 0 0 0 0 0 0 0 0 0 0 0 0 0 0 0 0 0 0
0 0 0 0 0 0 0 0 0 0 0 0 0 0 0 0 0 0 0 0 0 0 0 0 0 0 0 0 0 0 0 0 0 0 0 0 0 0 0 0 0 0 0
0 0 0 0 0 0 0 0 0 0 0 0 0 0 0 0 0 0 0 0 0 0 0 0 0 0 0 0 0 0 0 0 0 0 0 0 0 0 0 0 0 0 0
0 0 0 0 0 0 0 0 0 0 0 0 0 0 0 0 0 0 0 0 0 0 0 0 0 0 0 0 0 0 0 0 0 0 0 0 0 0 0 0 0 0 0
0 0 0 0 0 0 0 0 0 0 0 0 0 0 0 0 0 0 0 0 0 0 0 0 0 0 0 0 0 0 0 0 0 0 0 0 0 0 0 0 0 0 0
0 0 0 0 0 0 0 0 0 0 0 0 0 0 0 0 0 0 0 0 0 0 0 0 0 0 0 0 0 0 0 0 0 0 0 0 0 0 0 0 0 0 0
0 0 0 0 0 0 0 0 0 0 0 0 0 0 0 0 0 0 0 0 0 0 0 0 0 0 0 0 0 0 0 0 0 0 0 0 0 0 0 0 0 0 0
0 0 0 0 0 0 0 0 0 0 0 0 0 0 0 0 0 0 0 0 0 0 0 0 0 0 0 0 0 0 0 0 0 0 0 0 0 0 0 0 0 0 0
0 0 0 0 0 0 0 0 0 0 0 0 0 0 0 0 0 0 0 0 0 0 0 0 0 0 0 0 0 0 0 0 0 0 0 0 0 0 0 0 0 0 0
0 0 0 0 0 0 0 0 0 0 0 0 0 0 0 0 0 0 0 0 0 0 0 0 0 0 0 0 0 0 0 0 0 0 0 0 0 0 0 0 0 0 0
0 0 0 0 0 0 0 0 0 0 0 0 0 0 0 0 0 0 0 0 0 0 0 0 0 0 0 0 0 0 0 0 0 0 0 0 0 0 0 0 0 0 0
0 0 0 0 0 0 0 0 0 0 0 0 0 0 0 0 0 0 0 0 0 0 0 0 0 0 0 0 0 0 0 0 0 0 0 0 0 0 0 0 0 0 0
0 0 0 0 0 0 0 0 0 0 0 0 0 0 0 0 0 0 0 0 0 0 0 0 0 0 0 0 0 0 0 0 0 0 0 0 0 0 0 0 0 0 0
0 0 0 0 0 0 0 0 0 0 0 0 0 0 0 0 0 0 0 0 0 0 0 0 0 0 0 0 0 0 0 0 0 0 0 0 0 0 0 0 0 0 0
0 0 0 0 0 0 0 0 0 0 0 0 0 0 0 0 0 0 0 0 0 0 0 0 0 0 0 0 0 0 0 0 0 0 0 0 0 0 0 0 0 0 0
0 0 0 0 0 0 0 0 0 0 0 0 0 0 0 0 0 0 0 0 0 0 0 0 0 0 0 0 0 0 0 0 0 0 0 0 0 0 0 0 0 0 0
0 0 0 0 0 0 0 0 0 0 0 0 0 0 0 0 0 0 0 0 0 0 0 0 0 0 0 0 0 0 0 0 0 0 0 0 0 0 0 0 0 0 0
0 0 0 0 0 0 0 0 0 0 0 0 0 0 0 0 0 0 0 0 0 0 0 0 0 0 0 0 0 0 0 0 0 0 0 0 0 0 0 0 0 0 0
0 0 0 0 0 0 0 0 0 0 0 0 0 0 0 0 0 0 0 0 0 0 0 0 0 0 0 0 0 0 0 0 0 0 0 0 0 0 0 0 0 0 0
0 0 0 0 0 0 0 0 0 0 0 0 0 0 0 0 0 0 0 0 0 0 0 0 0 0 0 0 0 0 0 0 0 0 0 0 0 0 0 0 0 0 0
0 0 0 0 0 0 0 0 0 0 0 0 0 0 0 0 0 0 0 0 0 0 0 0 0 0 0 0 0 0 0 0 0 0 0 0 0 0 0 0 0 0 0
Wind_Speed
1 1 3 3 3 3 3 2 2 2 3 3 3 3 2 2 2 2 2 2 3 3 4 5 6 6 5 5 5 5 5 4 5 3 2 2 4 4 5 5 5 6 5
2 2 3 3 3 3 2 2 2 3 3 3 3 3 3 2 2 2 1 1 2 2 2 3 4 4 6 6 6 7 6 6 5 5 3 2 3 4 4 5 5 5 5
2 3 3 2 2 2 1 1 1 2 2 3 3 3 3 3 3 2 2 1 1 1 1 2 2 3 4 4 6 6 5 6 4 4 3 2 2 2 2 3 4 3 5
3 4 3 2 1 0 0 0 1 2 3 3 3 3 3 3 3 3 3 2 2 1 1 0 0 1 2 2 3 4 4 5 5 4 3 3 2 2 2 3 3 4 4
4 4 3 2 2 2 2 2 1 1 2 3 3 3 3 3 4 4 4 3 3 2 1 1 1 1 2 2 2 2 3 3 4 3 3 3 3 3 3 3 3 2 3
7 6 5 5 5 5 4 4 3 2 2 2 3 3 4 4 6 9 6 4 4 3 2 1 2 2 2 3 3 4 4 3 3 3 3 3 3 3 3 3 3 2 2
8 7 7 7 6 6 6 5 4 3 2 2 2 3 4 5 7 9 10 5 4 4 3 2 2 2 3 2 3 4 5 7 6 4 4 4 3 4 4 4 4 3 3
7 7 7 7 6 6 6 6 5 3 3 3 3 3 3 4 6 8 9 6 4 4 4 4 3 3 3 4 3 3 4 4 5 4 4 4 4 4 4 4 4 3 2
7 7 6 6 6 7 7 6 4 4 4 4 3 3 3 4 4 5 6 4 4 4 3 3 4 4 5 5 4 4 4 4 5 8 8 7 7 7 5 3 3 2 3
6 5 5 6 6 7 6 5 4 4 4 4 4 4 4 3 4 2 5 3 3 2 1 1 3 4 4 4 4 4 4 3 2 2 3 4 4 4 6 5 4 4 2
4 5 6 6 6 6 6 5 5 5 5 6 6 5 6 6 6 4 2 2 2 2 1 0 1 2 1 0 3 3 4 2 1 1 1 0 0 1 2 3 4 4 4
4 5 6 6 6 6 7 7 7 7 7 7 6 6 6 6 8 6 5 3 3 2 1 0 1 2 4 4 2 0 0 2 2 1 1 0 0 1 1 1 2 3 3
4 4 4 5 5 6 7 7 7 7 6 6 5 5 5 5 7 11 9 7 4 2 1 2 3 5 5 4 5 5 4 2 2 1 1 0 0 0 1 1 1 1 0
3 3 3 4 4 5 5 5 6 6 6 6 6 5 5 5 6 6 5 4 5 5 4 5 7 7 4 4 4 4 2 1 1 1 1 1 1 1 1 1 1 1 1
1 2 2 2 2 3 4 4 4 4 5 4 4 4 5 5 7 8 4 3 3 2 3 3 3 3 3 3 3 3 2 2 2 1 1 1 1 1 1 1 1 0 1
0 1 2 2 1 1 1 2 3 3 6 8 7 5 4 6 8 8 8 8 7 5 4 3 3 3 3 3 3 2 3 3 2 2 2 1 1 1 1 1 0 0 1
1 0 1 1 1 1 1 2 3 4 5 7 9 10 9 9 10 9 10 11 10 8 6 5 4 4 4 4 3 3 3 3 2 3 2 2 2 1 1 1 1 1 2
2 1 1 1 1 1 2 2 2 3 3 4 6 9 11 12 12 12 10 8 7 7 5 5 5 5 4 4 4 4 4 4 4 3 3 3 2 2 1 1 1 2 2
3 1 1 1 1 2 2 2 3 3 3 3 4 5 9 8 11 13 10 6 6 5 5 5 5 5 4 4 4 4 4 4 4 3 3 3 3 2 2 2 2 3 2
3 3 3 2 2 2 2 2 3 3 3 3 4 4 4 5 5 6 6 5 5 5 5 5 5 5 4 4 4 4 4 4 5 4 4 4 3 3 3 3 3 3 3
3 2 4 3 2 2 2 2 2 2 2 3 3 4 4 4 4 5 5 5 5 5 4 4 4 5 5 4 4 5 5 4 4 4 4 4 4 4 3 3 3 3 3
3 3 2 2 2 2 2 2 2 2 2 2 2 3 6 4 4 4 4 4 4 4 4 4 4 4 4 5 5 5 4 4 4 4 4 4 4 4 4 3 4 4 3
4 4 3 2 2 3 3 2 2 2 2 1 2 2 3 3 3 3 4 4 4 4 4 4 4 4 4 4 4 4 4 4 4 5 5 4 4 4 4 4 4 4 4
4 4 4 3 2 2 2 2 2 2 2 2 2 2 2 2 3 3 3 3 4 4 4 4 4 5 6 5 4 3 3 4 4 4 4 4 4 4 3 3 4 4 4
4 4 4 3 3 3 2 2 2 2 2 2 2 2 2 3 3 3 3 3 4 4 4 4 3 4 6 6 6 5 7 8 6 3 3 3 3 4 3 3 3 4 3
4 4 3 3 3 3 3 3 3 3 2 2 2 3 3 3 3 3 2 3 3 3 3 3 5 5 6 5 6 8 8 8 7 7 3 3 3 4 4 3 5 4 4
Wind_Direction
152 136 123 127 129 128 133 147 150 147 149 150 148 143 143 141 139 156 193 200 214 223 221 218 221 206 204 203 199 197 196 182 208 228 218 192 183 193 190 189 198 208 218
137 124 120 116 116 122 128 136 153 164 168 165 157 155 161 158 153 160 177 180 203 220 226 226 227 214 211 205 202 203 201 195 196 213 200 188 194 192 183 188 200 211 214
137 129 122 115 124 140 147 148 172 180 183 176 173 180 183 178 174 176 172 164 173 198 218 231 240 225 216 209 206 206 202 199 192 194 194 173 162 146 151 193 204 210 214
128 120 109 96 102 170 246 219 224 211 203 202 201 202 199 193 187 182 173 163 158 153 151 173 216 221 226 221 213 208 199 195 191 189 184 173 168 156 154 177 207 210 221
88 77 59 44 35 16 357 329 303 267 238 214 208 210 205 199 201 192 186 181 176 172 168 173 217 216 211 210 201 193 193 198 190 188 185 176 174 167 187 178 202 202 226
65 54 37 33 33 21 9 3 353 327 287 231 218 217 219 223 216 202 191 188 190 194 207 228 255 253 247 238 227 206 194 193 196 189 190 196 195 186 172 172 169 170 249
54 46 35 31 27 17 13 14 3 345 335 301 261 236 239 244 238 219 204 188 194 204 210 222 246 236 230 235 253 245 227 219 204 184 190 199 192 191 175 179 187 197 219
45 39 29 25 21 11 12 8 354 347 344 331 312 281 263 262 249 231 210 190 193 208 212 217 234 254 239 217 219 235 242 238 226 216 210 213 207 195 189 188 190 206 232
33 25 16 16 14 10 6 355 348 348 348 342 334 328 305 301 291 245 191 173 191 211 218 224 233 248 258 230 209 231 253 259 253 239 232 231 225 214 194 176 183 201 238
15 12 11 15 17 11 1 354 349 350 352 357 6 5 355 338 335 291 175 163 181 197 210 241 254 261 268 231 200 212 247 264 240 238 240 242 233 227 213 203 202 208 217
7 21 22 18 18 15 9 8 5 9 19 25 25 21 19 12 8 22 117 150 167 162 162 230 311 329 350 134 174 199 236 235 192 191 182 170 159 202 219 213 206 206 211
29 34 28 22 23 20 21 20 20 21 27 26 25 25 20 14 17 24 49 82 112 125 133 123 345 42 64 71 87 92 226 133 121 118 115 120 226 264 265 244 225 225 228
44 35 26 26 28 25 28 24 22 22 25 22 22 22 14 11 15 26 35 49 64 76 70 73 72 66 60 54 53 64 73 86 104 117 140 202 282 336 37 41 43 50 353
50 27 19 25 27 29 31 27 27 22 19 19 19 14 6 9 12 8 13 27 42 53 55 57 61 60 54 48 45 45 49 72 99 110 110 74 51 52 50 44 38 24 360
48 18 14 21 30 34 36 31 26 27 20 18 13 9 8 9 358 1 17 21 30 54 59 46 39 37 35 29 32 36 36 46 60 65 81 77 62 56 43 36 39 22 322
35 0 357 0 16 35 29 23 27 26 27 35 33 27 13 7 3 22 37 44 53 70 68 55 45 42 38 29 28 31 33 31 34 44 53 51 48 43 24 13 1 310 295
182 274 357 9 21 33 46 44 20 3 20 32 27 27 30 26 31 40 49 53 51 55 60 53 46 41 37 36 35 37 32 22 27 42 43 34 31 28 18 354 336 318 306
166 155 103 38 37 51 67 68 57 40 16 356 2 21 32 41 43 44 47 54 46 43 48 47 42 37 35 37 36 35 32 29 32 34 32 27 23 18 6 346 327 310 303
163 161 123 88 75 79 78 73 62 54 42 14 4 7 17 37 45 43 46 54 55 48 44 44 40 38 36 35 35 36 38 35 28 27 23 17 11 7 355 342 332 323 313
168 175 145 118 96 90 81 77 67 59 47 35 27 7 2 35 44 38 42 46 51 48 45 45 41 38 35 32 30 31 33 31 25 21 12 6 0 357 347 339 333 323 308
155 150 136 113 110 113 105 98 91 80 64 49 29 24 55 63 58 52 48 46 45 42 39 40 38 33 28 25 23 25 26 23 16 7 1 355 350 343 336 328 320 313 308
146 142 136 134 129 123 121 120 114 103 88 73 42 41 59 68 65 60 53 49 44 39 34 37 39 32 26 21 18 17 17 12 3 353 346 340 335 333 331 330 329 326 327
145 144 138 134 134 132 122 123 127 127 118 104 89 73 68 72 70 66 60 51 46 41 34 36 37 28 19 16 14 10 1 348 334 328 328 330 334 336 337 338 339 338 341
149 150 150 147 143 142 145 148 149 148 144 134 119 106 99 91 82 75 69 61 56 47 39 35 34 26 19 10 359 351 339 326 316 310 319 326 335 337 341 344 342 342 341
151 152 156 160 163 163 161 160 162 162 157 152 142 132 122 112 101 90 78 70 68 58 45 34 24 16 10 4 356 347 344 349 356 347 337 348 355 354 353 353 352 347 345
157 158 160 161 166 170 172 174 177 173 166 158 151 145 137 128 119 107 95 85 76 60 43 28 18 16 6 355 350 355 3 15 22 26 26 23 23 15 9 10 9 6 360